�������l�o���
Date,Time,MP-1(��Sv/h),MP-2(��Sv/h),MP-3(��Sv/h),MP-4(��Sv/h),MP-5(��Sv/h),MP-6(��Sv/h),MP-7(��Sv/h),MP-8(��Sv/h),����,����(m/s),���J
2019/12/07,00:00,0.709,1.033,0.689,1.288,0.900,0.408,0.714,0.678,��쐼,2.6,��
2019/12/07,00:10,0.713,1.032,0.688,1.287,0.901,0.409,0.716,0.677,��쐼,2.3,��
2019/12/07,00:20,0.711,1.032,0.687,1.288,0.901,0.409,0.715,0.678,�쐼,2.3,��
2019/12/07,00:30,0.712,1.031,0.687,1.288,0.900,0.408,0.716,0.679,�쐼,2.1,��
2019/12/07,00:40,0.711,1.031,0.686,1.289,0.901,0.407,0.715,0.679,�쐼,1.3,��
2019/12/07,00:50,0.710,1.032,0.688,1.288,0.901,0.408,0.715,0.679,���쐼,1.1,��
2019/12/07,01:00,0.710,1.031,0.687,1.291,0.901,0.408,0.714,0.678,�쐼,1.4,��
2019/12/07,01:10,0.711,1.030,0.690,1.287,0.901,0.407,0.714,0.677,��쐼,1.4,��
2019/12/07,01:20,0.710,1.030,0.687,1.287,0.900,0.410,0.714,0.678,�쐼,2.0,��
2019/12/07,01:30,0.712,1.032,0.688,1.291,0.903,0.409,0.715,0.679,���쐼,1.7,��
2019/12/07,01:40,0.713,1.033,0.688,1.288,0.901,0.407,0.714,0.679,���쐼,3.2,��
2019/12/07,01:50,0.711,1.029,0.687,1.289,0.902,0.406,0.714,0.678,��,4.2,��
2019/12/07,02:00,0.712,1.030,0.689,1.286,0.901,0.407,0.716,0.679,��,2.3,��
2019/12/07,02:10,0.712,1.033,0.687,1.288,0.902,0.410,0.715,0.678,��,2.1,��
2019/12/07,02:20,0.711,1.032,0.687,1.290,0.902,0.409,0.714,0.680,���k��,2.6,��
2019/12/07,02:30,0.710,1.030,0.688,1.289,0.902,0.408,0.714,0.678,��,3.2,��
2019/12/07,02:40,0.711,1.031,0.688,1.289,0.903,0.407,0.715,0.678,���k��,2.9,��
2019/12/07,02:50,0.712,1.029,0.688,1.289,0.901,0.408,0.715,0.677,���k��,3.9,��
2019/12/07,03:00,0.712,1.031,0.689,1.288,0.901,0.409,0.714,0.678,���k��,3.1,��
2019/12/07,03:10,0.712,1.031,0.688,1.290,0.900,0.408,0.714,0.679,�k��,3.8,��
2019/12/07,03:20,0.713,1.030,0.689,1.290,0.899,0.410,0.716,0.680,���k��,3.4,��
2019/12/07,03:30,0.711,1.030,0.688,1.290,0.901,0.409,0.713,0.679,���k��,3.8,��
2019/12/07,03:40,0.711,1.031,0.689,1.289,0.901,0.409,0.715,0.678,�k��,4.2,��
2019/12/07,03:50,0.712,1.032,0.689,1.286,0.901,0.409,0.715,0.677,���k��,3.3,��
2019/12/07,04:00,0.710,1.031,0.689,1.291,0.900,0.408,0.716,0.678,���k��,3.9,��
2019/12/07,04:10,0.713,1.031,0.689,1.290,0.900,0.408,0.716,0.679,���k��,3.0,��
2019/12/07,04:20,0.713,1.033,0.688,1.286,0.901,0.408,0.716,0.678,���k��,2.5,��
2019/12/07,04:30,0.712,1.030,0.688,1.290,0.901,0.409,0.716,0.679,��,1.9,��
2019/12/07,04:40,0.713,1.030,0.689,1.290,0.903,0.407,0.715,0.677,��,1.5,��
2019/12/07,04:50,0.712,1.029,0.689,1.290,0.901,0.408,0.715,0.680,���k��,1.4,��
2019/12/07,05:00,0.712,1.029,0.688,1.288,0.902,0.409,0.716,0.680,���쐼,1.6,��
2019/12/07,05:10,0.710,1.031,0.687,1.289,0.902,0.407,0.714,0.679,��,1.8,��
2019/12/07,05:20,0.713,1.029,0.688,1.290,0.901,0.408,0.714,0.678,��,1.3,��
2019/12/07,05:30,0.712,1.031,0.689,1.290,0.901,0.408,0.716,0.679,��,1.4,��
2019/12/07,05:40,0.711,1.029,0.688,1.287,0.902,0.409,0.715,0.678,���쐼,1.0,��
2019/12/07,05:50,0.711,1.032,0.689,1.288,0.902,0.408,0.717,0.678,���쐼,2.5,��
2019/12/07,06:00,0.713,1.031,0.689,1.288,0.902,0.409,0.716,0.677,��,3.8,��
2019/12/07,06:10,0.710,1.032,0.687,1.288,0.901,0.408,0.715,0.680,���쐼,3.6,��
2019/12/07,06:20,0.711,1.031,0.687,1.286,0.901,0.408,0.715,0.678,���쐼,3.2,��
2019/12/07,06:30,0.710,1.031,0.689,1.290,0.900,0.407,0.715,0.678,�쐼,2.8,��
2019/12/07,06:40,0.712,1.031,0.689,1.286,0.902,0.408,0.716,0.679,���쐼,2.3,��
2019/12/07,06:50,0.714,1.028,0.688,1.288,0.901,0.410,0.715,0.679,��,2.1,��
2019/12/07,07:00,0.712,1.031,0.688,1.288,0.901,0.409,0.715,0.679,���k��,2.4,��
2019/12/07,07:10,0.713,1.029,0.689,1.287,0.900,0.409,0.714,0.679,���k��,2.2,��
2019/12/07,07:20,0.713,1.029,0.689,1.287,0.902,0.409,0.715,0.679,�k��,2.0,��
2019/12/07,07:30,0.711,1.030,0.689,1.286,0.900,0.408,0.716,0.678,���k��,2.9,��
2019/12/07,07:40,0.715,1.032,0.689,1.287,0.900,0.408,0.715,0.680,��,3.4,��
2019/12/07,07:50,0.711,1.028,0.687,1.290,0.900,0.410,0.716,0.680,��,2.8,��
2019/12/07,08:00,0.712,1.029,0.688,1.288,0.899,0.409,0.715,0.679,���k��,2.1,��
2019/12/07,08:10,0.712,1.032,0.689,1.289,0.901,0.409,0.716,0.680,��,2.9,��
2019/12/07,08:20,0.714,1.031,0.688,1.289,0.902,0.410,0.716,0.678,��,3.1,��
2019/12/07,08:30,0.713,1.029,0.688,1.288,0.901,0.407,0.716,0.677,��,3.1,��
2019/12/07,08:40,0.712,1.030,0.688,1.288,0.900,0.408,0.717,0.681,��,2.1,��
2019/12/07,08:50,0.713,1.031,0.689,1.287,0.901,0.408,0.718,0.679,���쐼,2.0,��
2019/12/07,09:00,0.715,1.031,0.688,1.287,0.902,0.409,0.717,0.679,���쐼,1.1,��
2019/12/07,09:10,0.713,1.029,0.687,1.290,0.902,0.409,0.716,0.680,���쐼,0.8,��
2019/12/07,09:20,0.713,1.030,0.688,1.291,0.901,0.409,0.717,0.680,�쐼,0.8,��
2019/12/07,09:30,0.714,1.031,0.689,1.290,0.901,0.409,0.717,0.681,�쐼,0.6,��
2019/12/07,09:40,0.713,1.031,0.690,1.289,0.903,0.410,0.717,0.678,�쐼,1.2,��
2019/12/07,09:50,0.713,1.032,0.689,1.287,0.903,0.408,0.717,0.680,��쐼,1.6,��
2019/12/07,10:00,0.713,1.031,0.689,1.290,0.903,0.410,0.717,0.680,��쐼,1.6,��
2019/12/07,10:10,0.716,1.032,0.689,1.288,0.902,0.409,0.718,0.681,��,1.4,��
2019/12/07,10:20,0.713,1.030,0.689,1.288,0.902,0.409,0.716,0.681,��쐼,1.0,��
2019/12/07,10:30,0.713,1.030,0.689,1.289,0.903,0.409,0.717,0.679,��,1.7,��
2019/12/07,10:40,0.712,1.032,0.689,1.288,0.902,0.410,0.717,0.680,��,2.2,��
2019/12/07,10:50,0.715,1.033,0.690,1.290,0.902,0.410,0.715,0.680,��,2.2,��
2019/12/07,11:00,0.714,1.029,0.688,1.287,0.902,0.409,0.715,0.680,��,1.9,��
2019/12/07,11:10,0.715,1.032,0.689,1.288,0.902,0.409,0.716,0.680,��,3.4,��
2019/12/07,11:20,0.715,1.030,0.690,1.289,0.902,0.408,0.715,0.680,��쐼,2.2,��
2019/12/07,11:30,0.713,1.032,0.690,1.291,0.900,0.409,0.718,0.679,��쐼,1.9,��
2019/12/07,11:40,0.715,1.031,0.689,1.290,0.903,0.408,0.716,0.682,�쐼,1.3,��
2019/12/07,11:50,0.716,1.032,0.691,1.288,0.902,0.410,0.716,0.680,��쐼,0.7,��
2019/12/07,12:00,0.715,1.033,0.691,1.288,0.903,0.410,0.716,0.681,��쐼,1.2,��
2019/12/07,12:10,0.716,1.031,0.691,1.292,0.902,0.410,0.717,0.680,��쐼,0.7,��
2019/12/07,12:20,0.716,1.032,0.691,1.290,0.903,0.409,0.716,0.681,��쐼,0.7,��
2019/12/07,12:30,0.717,1.032,0.690,1.289,0.902,0.410,0.715,0.679,��쐼,1.2,��
2019/12/07,12:40,0.715,1.033,0.690,1.291,0.902,0.409,0.717,0.679,��,1.4,��
2019/12/07,12:50,0.717,1.032,0.690,1.292,0.903,0.411,0.717,0.679,��쐼,1.6,��
2019/12/07,13:00,0.716,1.034,0.689,1.290,0.903,0.410,0.717,0.682,��쐼,2.8,��
2019/12/07,13:10,0.716,1.033,0.690,1.290,0.903,0.410,0.717,0.679,��,4.1,��
2019/12/07,13:20,0.716,1.033,0.689,1.291,0.904,0.411,0.716,0.681,��,4.1,��
2019/12/07,13:30,0.714,1.034,0.692,1.289,0.902,0.409,0.717,0.679,��,3.5,��
2019/12/07,13:40,0.715,1.032,0.690,1.290,0.903,0.410,0.716,0.681,��쐼,2.3,��
2019/12/07,13:50,0.716,1.033,0.690,1.292,0.904,0.409,0.717,0.680,��쐼,4.9,��
2019/12/07,14:00,0.715,1.033,0.690,1.290,0.904,0.409,0.716,0.679,��쐼,4.3,��
2019/12/07,14:10,0.716,1.032,0.690,1.287,0.902,0.411,0.718,0.680,��쐼,4.7,��
2019/12/07,14:20,0.714,1.030,0.690,1.288,0.904,0.411,0.716,0.680,��쐼,4.5,��
2019/12/07,14:30,0.716,1.032,0.691,1.291,0.904,0.409,0.717,0.681,��쐼,5.3,��
2019/12/07,14:40,0.716,1.030,0.690,1.290,0.902,0.410,0.717,0.680,��,4.9,��
2019/12/07,14:50,0.714,1.034,0.692,1.289,0.905,0.409,0.717,0.679,��,5.8,��
2019/12/07,15:00,0.716,1.034,0.691,1.290,0.905,0.410,0.718,0.681,��,4.9,��
2019/12/07,15:10,0.716,1.035,0.691,1.290,0.906,0.410,0.715,0.679,��,4.6,��
2019/12/07,15:20,0.715,1.032,0.690,1.291,0.904,0.410,0.717,0.682,��쐼,5.3,��
2019/12/07,15:30,0.715,1.033,0.691,1.290,0.904,0.411,0.717,0.680,��쐼,4.6,��
2019/12/07,15:40,0.716,1.033,0.690,1.290,0.904,0.410,0.718,0.678,��쐼,3.3,��
2019/12/07,15:50,0.717,1.035,0.689,1.291,0.903,0.411,0.716,0.681,��쐼,4.1,��
2019/12/07,16:00,0.717,1.033,0.689,1.290,0.902,0.410,0.716,0.680,��쐼,4.6,��
2019/12/07,16:10,0.716,1.032,0.692,1.292,0.903,0.411,0.717,0.680,��쐼,4.9,��
2019/12/07,16:20,0.716,1.034,0.690,1.289,0.904,0.409,0.718,0.681,�쐼,5.0,��
2019/12/07,16:30,0.717,1.034,0.690,1.290,0.904,0.411,0.718,0.682,�쐼,4.6,��
2019/12/07,16:40,0.717,1.035,0.691,1.291,0.903,0.410,0.718,0.680,��쐼,3.9,��
2019/12/07,16:50,0.715,1.032,0.693,1.290,0.905,0.409,0.718,0.681,��쐼,3.9,��
2019/12/07,17:00,0.717,1.035,0.692,1.288,0.904,0.410,0.718,0.681,��쐼,3.6,��
2019/12/07,17:10,0.716,1.034,0.691,1.288,0.904,0.410,0.717,0.679,��쐼,2.8,��
2019/12/07,17:20,0.718,1.035,0.691,1.291,0.903,0.411,0.718,0.680,��쐼,3.1,��
2019/12/07,17:30,0.717,1.034,0.691,1.292,0.902,0.410,0.717,0.680,��,3.0,��
2019/12/07,17:40,0.717,1.035,0.690,1.291,0.904,0.411,0.717,0.679,��,2.9,��
2019/12/07,17:50,0.716,1.035,0.691,1.290,0.902,0.410,0.716,0.680,��,3.6,��
2019/12/07,18:00,0.716,1.035,0.690,1.290,0.905,0.410,0.717,0.680,��쐼,3.3,��
2019/12/07,18:10,0.715,1.035,0.692,1.291,0.904,0.410,0.719,0.681,��쐼,3.8,��
2019/12/07,18:20,0.714,1.033,0.691,1.290,0.905,0.411,0.717,0.681,��,5.2,��
2019/12/07,18:30,0.717,1.033,0.692,1.292,0.902,0.410,0.718,0.679,��,6.9,��
2019/12/07,18:40,0.715,1.034,0.690,1.290,0.904,0.411,0.717,0.682,��,5.8,��
2019/12/07,18:50,0.716,1.034,0.690,1.289,0.905,0.411,0.719,0.680,��,5.5,��
2019/12/07,19:00,0.716,1.035,0.691,1.291,0.902,0.411,0.719,0.681,��,5.5,��
2019/12/07,19:10,0.715,1.034,0.690,1.290,0.905,0.410,0.718,0.681,��,4.9,��
2019/12/07,19:20,0.716,1.035,0.691,1.291,0.902,0.410,0.717,0.681,��쐼,4.9,��
2019/12/07,19:30,0.715,1.033,0.693,1.292,0.904,0.409,0.719,0.680,��,5.2,��
2019/12/07,19:40,0.715,1.034,0.690,1.291,0.903,0.410,0.717,0.679,��,6.0,��
2019/12/07,19:50,0.715,1.034,0.690,1.291,0.902,0.412,0.718,0.679,��쐼,6.1,��
2019/12/07,20:00,0.716,1.033,0.690,1.290,0.904,0.411,0.717,0.679,��,4.7,��
2019/12/07,20:10,0.716,1.033,0.691,1.294,0.904,0.411,0.718,0.682,��,2.5,��
2019/12/07,20:20,0.716,1.032,0.690,1.292,0.903,0.410,0.717,0.680,��,2.3,��
2019/12/07,20:30,0.716,1.034,0.691,1.292,0.903,0.410,0.716,0.680,��,1.9,��
2019/12/07,20:40,0.714,1.033,0.691,1.292,0.904,0.411,0.716,0.680,��,2.5,��
2019/12/07,20:50,0.716,1.036,0.689,1.291,0.903,0.411,0.717,0.680,��,3.8,��
2019/12/07,21:00,0.717,1.035,0.691,1.288,0.906,0.411,0.718,0.681,��,3.1,��
2019/12/07,21:10,0.715,1.032,0.691,1.290,0.903,0.410,0.717,0.680,��쐼,2.3,��
2019/12/07,21:20,0.716,1.033,0.691,1.292,0.903,0.411,0.717,0.681,���쐼,1.9,��
2019/12/07,21:30,0.715,1.034,0.690,1.290,0.903,0.410,0.717,0.680,���쐼,3.5,��
2019/12/07,21:40,0.718,1.035,0.690,1.289,0.904,0.411,0.718,0.680,��,4.9,��
2019/12/07,21:50,0.716,1.033,0.691,1.292,0.903,0.410,0.717,0.680,��쐼,2.2,��
2019/12/07,22:00,0.716,1.032,0.692,1.292,0.905,0.411,0.719,0.679,��쐼,1.1,��
2019/12/07,22:10,0.717,1.033,0.690,1.292,0.905,0.411,0.718,0.680,��,0.7,��
2019/12/07,22:20,0.716,1.034,0.691,1.292,0.902,0.409,0.717,0.678,���쐼,1.7,��
2019/12/07,22:30,0.716,1.034,0.691,1.293,0.906,0.412,0.717,0.680,���쐼,3.8,��
2019/12/07,22:40,0.717,1.033,0.691,1.291,0.904,0.410,0.720,0.680,��,4.3,��
2019/12/07,22:50,0.716,1.033,0.692,1.290,0.902,0.412,0.720,0.681,��,4.9,��
2019/12/07,23:00,0.716,1.034,0.693,1.290,0.905,0.410,0.719,0.680,��,4.3,��
2019/12/07,23:10,0.716,1.033,0.690,1.290,0.901,0.411,0.720,0.680,���k��,5.0,��
2019/12/07,23:20,0.717,1.035,0.691,1.290,0.904,0.411,0.719,0.680,��,6.0,��
2019/12/07,23:30,0.716,1.033,0.692,1.291,0.902,0.411,0.718,0.681,��,4.9,��
2019/12/07,23:40,0.716,1.032,0.692,1.291,0.902,0.411,0.719,0.680,��,5.5,��
2019/12/07,23:50,0.718,1.033,0.691,1.290,0.903,0.410,0.720,0.681,��,5.5,��
